TimeCDT,TemperatureF,Dew PointF,Humidity,Sea Level PressureIn,VisibilityMPH,Wind Direction,Wind SpeedMPH,Gust SpeedMPH,PrecipitationIn,Events,Conditions,WindDirDegrees,DateUTC
12:53 AM,66.9,57.0,70,29.70,10.0,East,11.5,-,N/A,,Clear,100,2013-05-17 05:53:00
1:53 AM,64.9,57.9,78,29.72,10.0,ESE,15.0,23.0,N/A,,Partly Cloudy,110,2013-05-17 06:53:00
2:11 AM,64.4,57.2,77,29.87,10.0,East,16.1,23.0,N/A,,Mostly Cloudy,90,2013-05-17 07:11:00
2:36 AM,62.6,57.2,82,29.87,10.0,East,12.7,24.2,N/A,,Scattered Clouds,100,2013-05-17 07:36:00
2:53 AM,63.0,57.0,81,29.73,10.0,ESE,15.0,25.3,N/A,,Scattered Clouds,120,2013-05-17 07:53:00
3:12 AM,62.6,57.2,82,29.85,10.0,SSE,16.1,24.2,N/A,,Mostly Cloudy,150,2013-05-17 08:12:00
3:21 AM,62.6,57.2,82,29.88,10.0,ESE,10.4,21.9,N/A,,Scattered Clouds,110,2013-05-17 08:21:00
3:29 AM,62.6,57.2,82,29.88,10.0,SE,10.4,17.3,N/A,,Mostly Cloudy,130,2013-05-17 08:29:00
3:53 AM,61.0,57.0,87,29.73,10.0,ESE,10.4,-,N/A,,Scattered Clouds,120,2013-05-17 08:53:00
4:53 AM,60.1,55.9,86,29.74,10.0,SSE,9.2,-,N/A,,Partly Cloudy,160,2013-05-17 09:53:00
5:53 AM,60.1,55.9,86,29.72,10.0,SSE,5.8,-,N/A,,Mostly Cloudy,150,2013-05-17 10:53:00
6:24 AM,60.8,55.4,82,29.85,10.0,South,6.9,-,N/A,,Scattered Clouds,180,2013-05-17 11:24:00
7:01 AM,60.8,55.4,82,29.86,10.0,Calm,Calm,-,N/A,,Mostly Cloudy,0,2013-05-17 12:01:00
7:53 AM,63.0,57.0,81,29.74,10.0,South,6.9,-,N/A,,Scattered Clouds,190,2013-05-17 12:53:00
8:22 AM,64.4,57.2,77,29.88,10.0,SSW,4.6,-,N/A,,Mostly Cloudy,200,2013-05-17 13:22:00
8:53 AM,66.9,59.0,76,29.75,10.0,South,8.1,-,N/A,,Overcast,190,2013-05-17 13:53:00
9:53 AM,69.1,57.0,65,29.76,10.0,SW,4.6,-,N/A,,Overcast,230,2013-05-17 14:53:00
10:53 AM,71.1,57.0,61,29.76,10.0,Variable,3.5,-,N/A,,Mostly Cloudy,0,2013-05-17 15:53:00
11:04 AM,71.6,57.2,60,29.88,10.0,Variable,4.6,-,N/A,,Scattered Clouds,0,2013-05-17 16:04:00
11:53 AM,75.0,57.0,53,29.75,10.0,Calm,Calm,-,N/A,,Clear,0,2013-05-17 16:53:00
12:53 PM,80.1,57.0,45,29.73,10.0,SSE,9.2,-,N/A,,Clear,150,2013-05-17 17:53:00
2:53 PM,89.1,53.1,29,29.68,10.0,SE,9.2,-,N/A,,Clear,130,2013-05-17 19:53:00
3:53 PM,91.0,51.1,25,29.65,10.0,SE,10.4,20.7,N/A,,Clear,140,2013-05-17 20:53:00
4:53 PM,93.9,48.9,21,29.61,10.0,SSE,16.1,24.2,N/A,,Clear,150,2013-05-17 21:53:00
5:53 PM,91.9,51.1,25,29.59,10.0,SE,19.6,26.5,N/A,,Clear,140,2013-05-17 22:53:00
6:53 PM,90.0,55.9,31,29.60,10.0,SE,20.7,31.1,N/A,,Clear,140,2013-05-17 23:53:00
7:53 PM,87.1,55.9,35,29.60,10.0,SSE,21.9,33.4,N/A,,Clear,150,2013-05-18 00:53:00
8:53 PM,81.0,59.0,47,29.62,10.0,SSE,17.3,24.2,N/A,,Clear,150,2013-05-18 01:53:00
9:53 PM,77.0,62.1,60,29.65,10.0,SSE,16.1,27.6,N/A,,Clear,150,2013-05-18 02:53:00
10:53 PM,73.9,61.0,64,29.68,10.0,SSE,18.4,25.3,N/A,,Clear,150,2013-05-18 03:53:00
11:53 PM,73.0,62.1,68,29.68,10.0,South,18.4,25.3,N/A,,Clear,170,2013-05-18 04:53:00